STARLINK-32375 (61070 NORAD) Tracking and Keplerian Element Data

This shows tracking and keplerian element data for the satellite.

Feedback or suggestion? Click here.




ElementValue
Catalog61070
NameSTARLINK-32375
Epoch Orbit484
Epoch Day286.89505461
Epoch Year2024
RAAN321.7201
Inclination53.1588
Eccentricity0.0001382
Argument of Perigee45.7812
Mean Anonmoly314.331
Mean Motion15.49304592
Decay Rate2.929E-05
L11 61070U 24164W 24286.89505461 .00002929 00000+0 60722-4 0 9993
L22 61070 53.1588 321.7201 0001382 45.7812 314.3310 15.49304592 4846



Live tracking and technical data element details for STARLINK-32375 (NORAD 61070). STARLINK-32375 can be tracked NOW for your location showing map with azimuth and elevation plus other details from your city location.







IsCatalogInMostPopularTable: catalog: 61070, numindb: 24
Update: records affected: 1



GetName: 61070 STARLINK-32375

Hit Count: updated at: Wed, 04 Dec 2024 10:19:32 GMT